Doylestown, PA

1:45 AM EDT on October 18, 2017 (GMT -0400)
Doylestown

Weather History for KDYL - August, 2013

Change the Weather History Date:

Tuesday, August 6, 2013

  Actual Average (KTTN) Record (KTTN)
Temperature  
Mean Temperature 66 °F -  
Max Temperature 79 °F 82 °F 100 °F (1918)
Min Temperature 54 °F 63 °F 50 °F (1994)
Growing Degree Days 16 (Base 50)    
Moisture  
Dew Point 58 °F    
Average Humidity 78    
Maximum Humidity 100    
Minimum Humidity 50    
Precipitation  
Precipitation 0.00 in - - ()
Sea Level Pressure  
Sea Level Pressure 30.09 in    
Wind  
Wind Speed 2 mph (South)    
Max Wind Speed 8 mph    
Max Gust Speed 17 mph    
Visibility 9 miles    
Events      
Averages and records for this station are not official NWS values.
T = Trace of Precipitation, MM = Missing Value Source: NWS Daily Summary

Daily Weather History Graph

Daily Weather History Graph

Search for Another Location

Airport or City:

Trip Planner

Search our weather history database for the weather conditions in past years. The results will help you decide how hot, cold, wet, or windy it might be!

Date:

Astronomy

Aug. 06, 2013 Rise Set
Actual Time 6:03 AM EDT 8:08 PM EDT
Civil Twilight 5:33 AM EDT 8:38 PM EDT
Nautical Twilight 4:56 AM EDT 9:15 PM EDT
Astronomical Twilight 4:16 AM EDT 9:55 PM EDT
Moon 5:52 AM EDT (8/6) 7:42 PM EDT (8/6)
Length of Visible Light 15h 05m
Length of Day
14h 05m
Waning Crescent, 0% of the Moon is Illuminated
Aug 6
Waning Crescent
Aug 6
New
Aug 14
First Quarter
Aug 20
Full
Aug 28
Last Quarter

Hourly Weather History & Observations

Time (EDT) Temp. Dew Point Humidity Pressure Visibility Wind Dir Wind Speed Gust Speed Precip Events Conditions
12:54 AM 57.0 °F 55.0 °F 93% 30.05 in 10.0 mi Calm Calm - N/A   Clear
1:54 AM 55.9 °F 54.0 °F 93% 30.05 in 10.0 mi Calm Calm - N/A   Clear
2:54 AM 55.0 °F 55.0 °F 100% 30.06 in 10.0 mi Calm Calm - N/A   Clear
3:54 AM 55.9 °F 55.0 °F 97% 30.06 in 10.0 mi Calm Calm - N/A   Clear
4:54 AM 55.9 °F 54.0 °F 93% 30.05 in 10.0 mi Calm Calm - N/A   Clear
5:54 AM 54.0 °F 53.1 °F 97% 30.07 in 10.0 mi Calm Calm - N/A   Clear
6:54 AM 55.9 °F 54.0 °F 93% 30.07 in 10.0 mi Calm Calm - N/A   Clear
7:54 AM 63.0 °F 57.0 °F 81% 30.07 in 10.0 mi NE 3.5 mph - N/A   Clear
8:54 AM 69.1 °F 60.1 °F 73% 30.08 in 10.0 mi Calm Calm - N/A   Unknown
9:54 AM 72.0 °F 55.0 °F 55% 30.08 in 10.0 mi Variable 3.5 mph - N/A   Partly Cloudy
10:54 AM 73.0 °F 55.9 °F 55% 30.09 in 10.0 mi SSE 5.8 mph - N/A   Clear
11:54 AM 73.9 °F 54.0 °F 50% 30.10 in 10.0 mi South 3.5 mph - N/A   Mostly Cloudy
12:54 PM 77.0 °F 57.0 °F 50% 30.09 in 10.0 mi South 4.6 mph - N/A   Scattered Clouds
1:54 PM 73.0 °F 57.0 °F 57% 30.09 in 10.0 mi Variable 3.5 mph - N/A   Overcast
2:54 PM 73.0 °F 61.0 °F 66% 30.09 in 10.0 mi Variable 4.6 mph - N/A   Overcast
3:54 PM 73.0 °F 61.0 °F 66% 30.08 in 10.0 mi Variable 4.6 mph - N/A   Overcast
4:54 PM 73.0 °F 62.1 °F 68% 30.09 in 10.0 mi SSW 4.6 mph - N/A   Mostly Cloudy
5:26 PM 69.8 °F 60.8 °F 73% 30.10 in 10.0 mi South 8.1 mph 17.3 mph N/A   Overcast
5:37 PM 69.8 °F 60.8 °F 73% 30.10 in 10.0 mi South 8.1 mph - N/A   Overcast
5:54 PM 70.0 °F 61.0 °F 73% 30.11 in 10.0 mi South 4.6 mph - N/A   Overcast
6:54 PM 69.1 °F 60.1 °F 73% 30.10 in 10.0 mi South 8.1 mph - N/A   Mostly Cloudy
7:54 PM 66.9 °F 59.0 °F 76% 30.10 in 10.0 mi Calm Calm - N/A   Scattered Clouds
8:52 PM 62.6 °F 59.0 °F 88% 30.11 in 2.0 mi Calm Calm - N/A   Clear
8:54 PM 64.0 °F 59.0 °F 84% 30.11 in 2.0 mi Calm Calm - N/A   Haze
9:34 PM 62.6 °F 59.0 °F 88% 30.12 in 8.0 mi Calm Calm - N/A   Partly Cloudy
9:54 PM 61.0 °F 59.0 °F 93% 30.12 in 10.0 mi Calm Calm - N/A   Clear
10:54 PM 63.0 °F 60.1 °F 90% 30.11 in 10.0 mi Calm Calm - N/A   Overcast
11:54 PM 64.0 °F 61.0 °F 90% 30.11 in 10.0 mi Calm Calm - N/A   Overcast